Location: Fisheating Creek Campgrounds
(26.9333°N, 81.3167°W)
Time: 15:22:56
(UTC-04:00)

Cosmos 2221 Rocket - Visible Passes

Search period start: 20 June 2018 00:00
Search period end: 30 June 2018 00:00
Orbit: 619 x 649 km, 82.5° (Epoch: 19 June)

Date Brightness Start Highest point End Pass type
(mag) Time Alt. Az. Time Alt. Az. Time Alt. Az.
20 Jun 6.3 03:06:56 10° NE 03:08:46 12° ENE 03:09:11 12° E visible
20 Jun 4.3 04:42:57 10° NNW 04:46:36 35° W 04:46:36 35° W visible
21 Jun 5.4 03:27:16 10° NNE 03:30:40 28° ENE 03:30:40 28° ENE visible
21 Jun 5.5 05:06:23 10° NW 05:08:06 15° WNW 05:08:06 15° WNW visible
22 Jun 4.4 03:48:54 10° N 03:52:12 48° NNE 03:52:12 48° NNE visible
23 Jun 4.8 04:11:12 10° NNW 04:13:46 31° NW 04:13:46 31° NW visible
24 Jun 6.1 02:55:59 10° NNE 02:57:57 19° NE 02:57:57 19° NE visible
24 Jun 5.7 04:34:14 10° NW 04:35:24 15° NW 04:35:24 15° NW visible
25 Jun 5.5 03:17:23 10° N 03:19:36 28° NNE 03:19:36 28° NNE visible
26 Jun 5.5 03:39:29 10° NNW 03:41:17 24° NNW 03:41:17 24° NNW visible
27 Jun 6.5 02:24:50 10° NE 02:25:33 13° NE 02:25:33 13° NE visible
27 Jun 6.0 04:02:16 10° NW 04:03:00 14° NW 04:03:00 14° NW visible
28 Jun 6.2 02:45:56 10° NNE 02:47:17 19° NNE 02:47:17 19° NNE visible
29 Jun 6.0 03:07:51 10° N 03:09:03 18° N 03:09:03 18° N visible
